Wind_Speed
19 20 21 22 23 24 24 23 23 23 22 22 22 22 21 21 21 21 20 20 19 19 19 18 18 18 17 17 17 16 15 15 14 13 13 13 12 12 11 11 10 10 10 10 10 9 9 9 8
20 20 22 23 24 25 24 24 23 23 23 24 24 23 23 23 23 22 22 21 21 21 21 20 20 19 19 19 19 18 17 17 16 16 15 15 14 14 14 13 13 13 12 12 12 12 11 11 11
21 22 23 24 24 24 24 25 25 25 25 25 25 25 25 24 24 23 23 23 23 23 22 22 21 21 21 20 20 20 19 18 18 18 17 17 16 16 15 15 15 15 14 14 14 14 14 14 14
22 23 24 25 25 24 24 25 26 26 26 27 27 26 26 26 25 25 24 24 24 24 24 23 22 22 22 22 21 21 21 20 19 19 19 18 18 17 16 16 16 16 16 16 16 16 16 16 16
23 24 25 25 24 24 24 25 25 26 26 27 28 28 28 28 27 27 26 26 26 25 25 25 24 24 23 23 23 22 22 22 21 20 20 20 19 19 19 18 18 18 18 18 18 17 18 18 17
24 25 26 25 25 25 24 25 25 26 26 27 28 28 29 29 29 29 28 28 27 27 26 26 26 26 25 24 24 23 23 23 22 22 21 21 21 21 21 20 20 20 20 20 20 19 19 19 19
25 25 26 26 26 26 25 26 27 27 28 27 28 29 29 30 30 30 29 29 29 28 28 27 27 27 26 26 26 25 25 24 24 24 23 23 23 23 22 22 22 22 22 22 22 22 22 21 21
25 26 26 26 27 27 27 27 28 29 29 29 29 28 29 29 30 31 30 30 30 29 29 29 28 28 28 27 27 27 27 26 26 26 25 25 24 25 25 24 24 24 24 24 24 24 24 24 24
26 27 26 26 27 28 27 29 29 29 29 30 30 29 29 30 30 31 31 31 31 31 30 30 29 29 29 29 29 28 28 28 28 28 27 27 27 26 26 26 26 25 25 25 25 25 26 26 26
27 27 26 26 27 27 28 28 29 29 29 30 30 30 31 31 31 32 32 32 32 32 32 31 31 31 30 30 30 30 30 29 29 29 29 28 28 28 28 28 27 27 27 27 27 27 28 28 28
27 27 27 27 27 28 28 28 28 29 29 30 30 29 31 31 31 33 33 34 34 34 33 33 33 32 32 32 32 31 31 31 31 31 31 30 29 29 29 29 29 29 29 29 29 29 29 29 29
26 27 28 28 28 29 29 29 29 29 29 30 30 30 30 31 31 32 33 34 35 35 34 34 33 33 33 33 33 33 33 32 32 33 32 32 32 31 30 31 31 30 31 31 31 31 31 31 31
27 28 28 27 28 29 29 30 30 30 30 30 31 31 31 31 31 31 33 34 35 35 35 35 34 34 34 34 34 34 34 34 34 34 34 34 34 34 33 33 33 33 33 33 33 33 33 33 33
27 27 28 28 28 29 30 30 31 30 31 31 32 32 32 32 32 32 33 34 35 36 36 36 35 35 35 35 35 35 35 35 35 35 36 35 35 35 35 35 35 34 34 34 35 35 35 35 36
27 27 28 28 29 29 30 30 31 31 32 32 32 33 33 32 32 33 33 34 35 36 37 36 36 36 36 36 36 36 37 37 37 36 36 36 36 35 36 36 36 36 36 36 36 37 37 37 37
26 27 28 28 29 29 30 31 31 31 32 33 33 34 34 34 34 34 35 35 36 37 37 37 37 37 37 37 37 38 38 38 38 37 37 37 37 37 37 37 37 37 38 38 39 39 39 38 39
25 27 27 28 28 29 31 31 32 32 33 33 34 34 34 35 36 36 36 37 38 39 38 38 38 39 39 39 39 39 39 39 39 39 39 38 38 38 39 39 39 39 39 39 40 40 40 40 40
25 26 27 28 29 30 31 31 31 33 33 34 34 34 35 35 37 38 38 38 39 40 40 40 40 40 41 41 41 41 41 41 41 40 41 40 40 41 40 41 41 41 41 41 41 42 42 42 42
26 26 27 28 29 30 31 32 32 33 34 34 35 34 35 36 37 39 40 40 40 40 41 41 41 41 42 42 42 43 43 43 43 43 43 43 43 43 44 43 43 43 43 44 43 44 44 44 43
26 27 27 28 30 31 32 32 32 33 34 34 35 35 36 36 37 39 40 40 41 42 42 42 42 43 43 43 44 44 44 45 45 45 45 46 45 46 46 46 46 46 46 46 45 45 45 45 45
25 27 27 28 29 31 32 32 31 32 34 35 35 35 36 37 37 39 40 40 41 42 43 43 43 43 44 45 44 45 46 47 46 47 47 48 48 47 47 48 48 48 48 47 46 47 47 47 47
26 26 27 28 29 29 30 32 30 31 32 33 34 35 35 37 38 39 40 41 42 43 44 45 45 45 45 46 45 46 47 47 48 49 49 49 50 49 49 49 48 48 49 49 48 48 48 48 48
27 27 28 28 29 30 30 32 30 30 31 32 33 34 35 37 38 39 40 41 42 43 44 45 46 46 46 47 46 46 47 48 50 51 52 52 51 52 52 52 51 50 50 50 49 50 50 49 49
27 28 28 29 30 31 30 32 32 30 30 31 33 34 35 37 38 39 41 42 42 43 44 45 46 46 47 48 49 48 48 49 50 51 53 54 54 53 54 54 54 53 53 52 51 51 51 52 52
27 28 28 30 30 31 31 33 32 31 31 31 32 34 35 36 38 39 41 42 43 44 45 46 47 47 48 49 51 51 51 51 51 51 52 54 55 55 55 55 55 55 56 55 54 54 53 53 53
27 28 29 31 32 32 32 33 32 32 32 32 33 34 36 37 39 40 41 43 44 44 45 47 48 48 49 49 51 52 53 53 53 52 53 53 55 56 56 56 56 56 56 57 57 56 56 55 54
28 28 29 31 32 34 34 33 32 32 33 34 35 36 37 38 39 41 42 43 44 45 46 46 48 49 50 51 52 53 54 55 54 54 55 54 55 56 56 57 57 57 57 58 58 58 57 56 55
29 29 30 31 34 35 35 34 34 32 33 34 35 37 38 39 40 41 42 44 45 46 47 47 48 49 50 51 52 53 54 55 55 55 56 56 56 56 56 57 57 58 58 58 58 58 58 58 57
30 30 32 33 35 36 37 35 34 34 35 35 36 37 38 39 40 42 44 45 46 47 48 49 49 50 50 51 53 53 55 55 55 56 56 56 56 56 56 57 57 58 58 59 59 59 59 59 59
32 32 33 35 36 37 38 37 35 35 36 37 38 38 39 41 42 43 44 45 46 47 48 49 50 51 52 52 53 53 54 55 55 55 56 56 57 57 57 57 58 59 59 58 59 59 59 59 60
Wind_Direction
233 233 231 232 235 235 236 236 235 234 235 235 235 235 235 236 236 237 237 236 236 237 237 237 236 236 237 240 242 242 243 244 245 245 246 246 246 247 248 249 248 246 249 251 252 252 253 254 255
236 235 234 236 237 238 237 239 238 238 238 238 238 238 237 238 238 239 239 238 238 239 239 239 238 238 239 241 243 244 244 245 246 246 247 248 248 250 251 251 250 248 250 251 252 253 252 254 253
239 238 238 240 239 239 240 240 240 241 240 239 239 240 239 240 240 240 241 240 240 240 241 241 241 240 240 242 243 244 244 244 246 247 248 248 249 250 251 252 252 251 250 251 253 255 255 256 255
241 240 240 241 241 240 241 240 240 240 241 240 240 241 241 241 241 241 242 241 242 242 243 242 241 242 242 242 243 245 245 245 246 248 249 249 249 250 252 253 254 253 253 255 256 256 256 258 258
242 242 241 241 241 241 241 241 240 240 240 241 242 242 242 242 242 242 242 242 242 242 243 243 243 243 243 243 244 245 246 247 247 248 249 250 251 251 253 254 255 255 256 257 259 258 257 258 260
243 243 242 242 242 243 243 243 242 241 240 240 242 243 243 243 242 242 242 241 242 242 242 244 245 244 243 243 244 244 246 246 247 248 250 251 252 253 253 255 256 256 256 257 258 259 258 259 260
244 244 245 245 244 244 245 245 243 243 241 240 241 243 243 243 242 241 242 241 241 241 242 243 244 244 244 244 244 244 245 246 247 248 250 250 252 254 255 256 256 256 256 257 258 259 259 260 259
245 246 247 247 246 246 247 246 244 244 243 242 243 244 243 243 242 241 242 242 242 241 241 241 243 244 244 245 245 245 245 247 248 249 250 252 253 255 256 257 258 257 257 257 258 258 259 259 260
244 246 247 247 247 248 248 247 245 245 244 244 245 246 244 243 241 242 243 242 242 243 242 241 243 244 244 245 245 245 246 248 249 250 251 253 254 255 256 257 258 258 258 258 259 259 259 260 261
245 247 248 248 249 249 248 247 246 246 246 247 247 246 245 245 244 243 243 242 241 242 242 242 243 245 245 245 246 247 248 249 251 251 253 255 256 256 257 257 258 258 258 259 258 260 261 261 260
247 248 248 249 250 249 248 246 246 247 248 249 247 247 248 247 246 244 243 242 241 242 242 243 244 245 247 248 248 248 250 251 251 252 253 255 256 256 256 257 258 259 259 260 260 261 261 262 261
249 249 250 250 251 250 248 246 246 247 249 250 248 248 249 247 247 247 245 243 242 243 244 245 246 246 247 248 250 251 251 252 253 253 254 255 256 256 256 257 258 259 260 261 262 261 261 262 263
251 252 252 252 252 250 248 247 247 247 249 249 248 248 250 249 248 248 247 244 244 244 244 244 245 246 247 248 249 251 252 253 254 255 256 256 258 259 258 259 259 259 260 260 261 262 264 264 264
252 253 253 252 252 250 249 249 248 248 250 251 249 249 251 251 249 249 248 246 245 246 245 245 246 246 248 249 249 251 253 253 254 256 257 258 259 260 260 260 260 260 261 261 262 262 264 264 264
253 253 254 253 253 251 251 250 251 250 250 251 252 251 251 253 251 250 248 248 246 247 247 247 247 247 249 250 251 253 255 256 256 256 257 259 259 260 261 261 261 261 262 263 263 263 263 264 264
256 254 255 255 254 252 253 253 253 253 252 252 253 254 253 252 252 252 250 249 248 248 248 249 249 248 250 250 251 252 254 255 256 256 257 258 259 260 261 261 262 262 263 263 263 263 263 264 265
259 258 257 256 255 254 254 254 254 255 255 254 255 255 254 254 254 252 251 249 249 248 249 250 250 250 251 251 252 252 254 255 256 257 257 258 259 260 261 262 263 263 263 264 264 263 263 264 264
262 262 260 259 257 256 256 256 255 256 256 255 255 255 255 255 255 253 251 250 249 250 251 251 252 251 252 252 252 253 253 254 256 256 257 258 259 260 262 263 264 265 265 264 264 264 264 264 265
264 264 263 261 260 259 258 258 257 258 258 258 257 256 255 256 255 253 253 251 251 252 252 253 254 253 253 253 254 254 254 255 256 256 257 257 259 261 262 264 266 266 266 265 265 265 265 265 265
266 265 265 264 262 261 260 260 260 260 260 260 259 258 257 256 256 255 254 254 252 252 253 254 255 253 253 254 255 255 255 255 256 257 258 259 260 262 262 263 264 265 266 266 266 265 265 265 265
270 268 267 266 265 264 263 261 259 260 260 260 260 260 260 258 258 256 255 254 254 253 253 254 255 255 254 254 255 256 255 255 256 257 258 260 262 263 264 264 264 264 264 265 266 266 265 265 265
272 271 270 269 269 268 267 266 261 262 262 262 261 261 260 260 259 257 256 255 255 255 255 254 254 255 255 255 255 256 257 257 257 258 259 261 262 263 263 263 264 264 265 265 265 265 266 265 265
274 274 273 272 271 270 270 270 266 265 264 265 264 263 262 261 261 260 259 258 257 257 257 257 256 256 255 256 256 257 258 258 258 259 260 261 263 263 262 263 264 264 264 265 265 265 265 265 265
275 275 275 275 274 272 272 272 270 268 267 267 267 265 264 263 262 262 261 260 260 259 260 259 258 258 258 257 257 257 258 259 260 260 261 262 262 262 262 263 264 264 264 264 264 265 265 266 266
276 275 276 277 276 274 274 274 273 273 271 269 269 268 266 264 263 262 262 262 262 262 262 261 259 260 260 260 260 260 260 260 261 262 263 263 262 261 262 262 263 263 264 264 264 264 264 265 265
277 277 276 277 278 278 276 276 276 275 274 272 270 269 268 266 265 264 265 264 263 263 263 262 261 261 262 262 263 263 262 262 262 263 263 263 262 262 262 262 262 263 263 264 264 265 265 265 264
277 277 278 278 278 279 277 277 277 277 275 272 271 270 269 268 267 266 265 265 264 264 264 263 263 263 263 263 263 264 265 264 264 263 263 263 263 263 262 262 262 263 263 264 264 264 265 265 265
277 278 278 278 279 280 279 280 280 278 278 277 274 272 270 269 268 267 267 267 266 265 265 265 264 264 264 265 265 266 265 265 265 264 264 263 263 263 263 263 263 263 263 263 264 264 264 265 265
276 277 278 278 278 279 280 281 283 282 280 278 275 273 271 271 270 269 269 268 268 267 267 267 266 266 266 266 266 267 267 266 266 265 265 264 264 264 263 264 264 264 264 264 263 263 264 264 264
276 277 278 278 279 278 279 281 283 283 281 279 276 274 272 272 272 272 271 271 270 269 269 268 268 268 268 268 267 268 268 267 266 266 266 266 265 265 264 264 265 265 264 264 263 263 264 264 264
Height
5813 5815 5816 5818 5820 5821 5823 5825 5826 5828 5830 5831 5832 5834 5835 5837 5839 5842 5842 5841 5842 5843 5845 5846 5847 5848 5848 5849 5850 5851 5852 5852 5853 5853 5853 5854 5854 5854 5854 5855 5855 5855 5855 5856 5856 5856 5856 5856 5856
5809 5811 5813 5814 5815 5817 5819 5820 5822 5824 5825 5826 5828 5829 5831 5832 5834 5835 5836 5837 5838 5840 5841 5842 5843 5844 5845 5846 5847 5848 5849 5849 5850 5850 5851 5851 5851 5851 5852 5852 5852 5852 5853 5853 5853 5854 5854 5854 5854
5805 5807 5809 5809 5810 5813 5815 5816 5818 5819 5820 5822 5823 5824 5826 5828 5829 5831 5832 5833 5834 5836 5837 5838 5839 5840 5841 5842 5843 5844 5845 5846 5847 5847 5848 5848 5848 5848 5849 5849 5849 5850 5850 5850 5850 5851 5851 5851 5851
5801 5802 5804 5805 5806 5808 5809 5811 5812 5814 5815 5817 5818 5820 5821 5823 5824 5826 5827 5829 5830 5831 5832 5834 5835 5836 5837 5838 5839 5840 5842 5842 5843 5844 5844 5845 5845 5845 5846 5846 5846 5846 5847 5847 5847 5847 5848 5848 5848
5796 5797 5798 5800 5801 5803 5804 5805 5807 5808 5810 5811 5813 5814 5816 5818 5819 5821 5822 5824 5825 5826 5828 5829 5831 5832 5833 5834 5835 5836 5837 5838 5839 5840 5840 5841 5841 5842 5842 5842 5843 5843 5843 5844 5844 5844 5844 5845 5845
5791 5792 5794 5795 5797 5798 5799 5800 5801 5803 5804 5805 5806 5808 5810 5812 5813 5815 5817 5818 5820 5821 5823 5825 5826 5827 5828 5829 5830 5832 5833 5834 5835 5836 5836 5837 5837 5838 5838 5838 5839 5839 5840 5840 5840 5840 5841 5841 5841
5786 5787 5788 5790 5791 5793 5794 5794 5796 5797 5798 5799 5800 5802 5804 5805 5807 5809 5811 5812 5814 5816 5818 5819 5821 5822 5823 5824 5826 5827 5828 5829 5830 5831 5832 5832 5833 5833 5834 5834 5834 5835 5835 5835 5836 5836 5836 5837 5837
5780 5782 5782 5784 5786 5787 5788 5789 5789 5790 5792 5793 5794 5796 5798 5799 5800 5802 5804 5806 5808 5810 5812 5813 5815 5816 5818 5819 5820 5822 5823 5824 5825 5826 5827 5827 5828 5828 5829 5829 5830 5830 5830 5831 5831 5831 5832 5832 5832
5774 5776 5777 5778 5780 5781 5782 5782 5783 5784 5785 5786 5788 5789 5791 5792 5794 5796 5798 5800 5802 5804 5806 5807 5809 5811 5812 5813 5814 5816 5817 5818 5819 5820 5821 5822 5822 5823 5823 5824 5824 5824 5825 5825 5825 5826 5826 5826 5827
5767 5769 5771 5772 5774 5774 5775 5775 5776 5778 5779 5780 5781 5782 5784 5785 5787 5789 5791 5793 5795 5797 5799 5801 5803 5804 5806 5807 5808 5810 5811 5812 5813 5814 5815 5816 5816 5817 5817 5818 5818 5819 5819 5819 5820 5820 5820 5820 5821
5761 5763 5764 5765 5766 5767 5768 5769 5770 5771 5773 5774 5775 5776 5777 5778 5780 5782 5783 5786 5788 5790 5792 5794 5796 5797 5799 5801 5802 5804 5804 5805 5806 5807 5808 5809 5810 5811 5811 5812 5812 5813 5813 5813 5814 5814 5814 5814 5815
5755 5756 5757 5758 5759 5760 5761 5762 5764 5765 5766 5767 5768 5769 5770 5772 5773 5774 5776 5778 5780 5783 5785 5787 5788 5791 5792 5794 5795 5797 5798 5799 5800 5800 5801 5802 5803 5804 5804 5805 5805 5806 5806 5806 5807 5807 5807 5807 5808
5749 5749 5751 5752 5752 5753 5754 5755 5757 5758 5759 5760 5761 5762 5763 5765 5766 5767 5769 5770 5772 5775 5777 5779 5781 5783 5785 5786 5788 5789 5791 5792 5793 5794 5794 5795 5796 5797 5797 5798 5798 5798 5799 5799 5800 5800 5800 5800 5800
5742 5743 5744 5745 5745 5746 5747 5748 5750 5752 5752 5753 5754 5755 5757 5758 5759 5760 5762 5763 5765 5767 5768 5771 5773 5775 5777 5778 5780 5781 5783 5784 5785 5786 5787 5787 5788 5789 5789 5790 5790 5790 5791 5791 5791 5792 5792 5792 5792
5736 5737 5738 5738 5738 5739 5740 5742 5743 5744 5745 5746 5747 5748 5749 5750 5752 5753 5754 5756 5757 5758 5760 5762 5764 5767 5769 5770 5772 5773 5775 5776 5777 5778 5778 5779 5780 5780 5781 5781 5782 5782 5782 5782 5782 5783 5783 5783 5783
5729 5730 5731 5732 5732 5732 5735 5736 5736 5737 5737 5738 5739 5740 5742 5743 5744 5745 5746 5748 5749 5750 5752 5754 5756 5758 5760 5762 5764 5765 5766 5767 5768 5769 5770 5770 5771 5772 5772 5772 5773 5773 5773 5773 5773 5774 5774 5774 5774
5723 5723 5724 5725 5725 5725 5726 5728 5729 5729 5729 5730 5731 5732 5733 5735 5736 5737 5738 5739 5741 5742 5744 5746 5747 5749 5751 5753 5755 5756 5757 5758 5759 5760 5760 5761 5762 5762 5763 5763 5763 5763 5764 5764 5764 5764 5764 5765 5765
5717 5717 5717 5717 5718 5718 5719 5720 5721 5721 5721 5722 5723 5724 5725 5726 5727 5728 5729 5730 5732 5733 5735 5737 5738 5740 5741 5743 5745 5746 5747 5748 5749 5750 5751 5751 5752 5753 5753 5753 5753 5754 5754 5754 5754 5754 5754 5754 5754
5710 5710 5710 5710 5710 5710 5711 5712 5712 5712 5713 5714 5714 5715 5716 5717 5718 5719 5720 5721 5722 5724 5726 5728 5729 5730 5731 5733 5734 5736 5737 5738 5739 5739 5740 5741 5742 5742 5742 5742 5743 5743 5743 5743 5743 5743 5743 5743 5743
5703 5703 5703 5703 5702 5702 5703 5703 5704 5704 5704 5705 5706 5706 5707 5708 5709 5709 5710 5711 5713 5714 5715 5717 5718 5720 5721 5722 5723 5725 5726 5727 5728 5728 5729 5730 5730 5731 5731 5731 5732 5731 5731 5731 5732 5732 5732 5732 5732
5696 5696 5696 5695 5694 5693 5694 5695 5696 5696 5696 5696 5697 5697 5697 5698 5699 5699 5700 5701 5702 5703 5705 5707 5707 5709 5710 5711 5712 5713 5714 5715 5716 5717 5718 5718 5718 5719 5719 5719 5719 5719 5719 5719 5719 5720 5720 5720 5720
5689 5689 5688 5687 5686 5686 5686 5685 5688 5688 5687 5687 5687 5687 5688 5689 5689 5690 5690 5692 5693 5693 5694 5695 5696 5698 5699 5700 5701 5702 5702 5703 5704 5705 5705 5706 5706 5706 5706 5706 5706 5706 5706 5707 5707 5707 5707 5708 5708
5682 5681 5680 5679 5678 5678 5677 5676 5679 5679 5678 5678 5678 5678 5679 5679 5680 5680 5681 5681 5682 5683 5683 5684 5685 5686 5687 5688 5689 5689 5690 5690 5691 5692 5692 5693 5693 5693 5693 5693 5693 5693 5693 5694 5694 5694 5694 5694 5695
5674 5674 5673 5671 5670 5670 5670 5668 5669 5670 5670 5669 5669 5669 5669 5670 5670 5670 5670 5671 5671 5672 5672 5673 5673 5674 5675 5676 5676 5677 5677 5678 5678 5678 5679 5679 5679 5679 5679 5679 5679 5680 5680 5680 5680 5681 5681 5681 5681
5667 5666 5665 5662 5661 5661 5661 5659 5661 5661 5661 5660 5660 5659 5659 5659 5659 5660 5660 5660 5660 5661 5661 5661 5661 5662 5663 5663 5664 5664 5664 5664 5665 5665 5665 5665 5665 5665 5665 5665 5665 5665 5666 5666 5666 5666 5666 5667 5667
5659 5659 5658 5655 5653 5653 5651 5650 5653 5652 5651 5650 5649 5649 5648 5648 5648 5649 5649 5649 5649 5649 5649 5649 5649 5650 5650 5651 5651 5651 5651 5651 5651 5650 5650 5650 5650 5650 5650 5650 5651 5651 5651 5651 5651 5651 5651 5652 5652
5652 5651 5650 5648 5645 5643 5642 5643 5643 5642 5641 5640 5639 5638 5638 5638 5637 5637 5637 5637 5637 5637 5637 5637 5637 5637 5637 5637 5637 5637 5637 5636 5636 5636 5635 5635 5635 5635 5635 5635 5636 5636 5636 5636 5636 5636 5636 5637 5637
5644 5643 5641 5638 5635 5634 5633 5634 5634 5633 5631 5630 5629 5628 5627 5627 5626 5626 5625 5625 5625 5625 5624 5624 5624 5624 5623 5623 5623 5623 5622 5622 5621 5621 5621 5621 5620 5620 5620 5620 5621 5621 5621 5621 5621 5621 5622 5622 5622
5635 5634 5632 5629 5627 5625 5623 5627 5625 5623 5621 5619 5618 5617 5616 5615 5615 5614 5613 5613 5612 5612 5611 5611 5610 5610 5609 5609 5608 5608 5607 5607 5606 5606 5606 5605 5605 5605 5605 5605 5605 5605 5605 5606 5606 5606 5607 5607 5607
5626 5625 5623 5622 5619 5616 5614 5618 5615 5613 5610 5608 5607 5606 5604 5603 5603 5602 5601 5600 5600 5599 5598 5597 5597 5596 5595 5594 5594 5593 5592 5592 5591 5591 5590 5590 5590 5589 5589 5589 5589 5590 5590 5589 5590 5590 5591 5591 5591